Total_Precipitation_Accumulation
0.00 0.00 0.00 0.00 0.00 0.00 0.00 0.00 0.00 0.00 0.00 0.00 0.00 0.00 0.00 0.00 0.00 0.00 0.00 0.00 0.00 0.00 0.00 0.00 0.00 0.00 0.00 0.00 0.00 0.00 0.00 0.00 0.00 0.00 0.00 0.00 0.00 0.00 0.00 0.00 0.00 0.00 0.00 0.00 0.00 0.00 0.00 0.00 0.00 0.00 0.01 0.01 0.02 0.02 0.02 0.03 0.03 0.03 0.03 0.03 0.02 0.01 0.01 0.01 0.01 0.01 0.00 0.01 0.00 0.00 0.00 0.01 0.01 0.00 0.03 0.02 0.06 0.07 0.10 0.11 0.09 0.15 0.16 0.27 0.18 0.18
0.00 0.00 0.00 0.00 0.00 0.00 0.00 0.00 0.00 0.00 0.00 0.00 0.00 0.00 0.00 0.00 0.00 0.00 0.00 0.00 0.00 0.00 0.00 0.00 0.00 0.00 0.00 0.00 0.00 0.00 0.00 0.00 0.00 0.00 0.00 0.00 0.00 0.00 0.00 0.00 0.00 0.00 0.00 0.00 0.00 0.00 0.00 0.00 0.00 0.01 0.01 0.02 0.03 0.03 0.03 0.04 0.03 0.04 0.03 0.03 0.02 0.01 0.01 0.00 0.00 0.01 0.01 0.01 0.02 0.03 0.02 0.01 0.00 0.00 0.00 0.01 0.01 0.02 0.03 0.03 0.05 0.05 0.06 0.08 0.10 0.10
0.00 0.00 0.00 0.00 0.00 0.00 0.00 0.00 0.00 0.00 0.00 0.00 0.00 0.00 0.00 0.00 0.00 0.00 0.00 0.00 0.00 0.00 0.00 0.00 0.00 0.00 0.00 0.00 0.00 0.00 0.00 0.00 0.00 0.00 0.00 0.00 0.00 0.00 0.00 0.00 0.00 0.00 0.00 0.00 0.00 0.00 0.00 0.01 0.01 0.02 0.02 0.03 0.03 0.03 0.04 0.04 0.04 0.03 0.03 0.02 0.01 0.01 0.01 0.01 0.01 0.01 0.01 0.01 0.00 0.01 0.01 0.01 0.01 0.01 0.00 0.01 0.01 0.02 0.03 0.04 0.04 0.06 0.07 0.07 0.07 0.07
0.00 0.00 0.00 0.00 0.00 0.00 0.00 0.00 0.00 0.00 0.00 0.00 0.00 0.00 0.00 0.00 0.00 0.00 0.00 0.00 0.00 0.00 0.00 0.00 0.00 0.00 0.00 0.00 0.00 0.00 0.00 0.00 0.00 0.00 0.00 0.00 0.00 0.00 0.00 0.00 0.00 0.00 0.00 0.00 0.00 0.01 0.01 0.02 0.02 0.03 0.03 0.04 0.04 0.04 0.04 0.04 0.04 0.03 0.03 0.02 0.01 0.01 0.01 0.01 0.00 0.01 0.01 0.02 0.03 0.01 0.01 0.01 0.02 0.02 0.01 0.02 0.01 0.01 0.02 0.03 0.04 0.05 0.07 0.09 0.08 0.08
0.00 0.00 0.00 0.00 0.00 0.00 0.00 0.00 0.00 0.00 0.00 0.00 0.00 0.00 0.00 0.00 0.00 0.00 0.00 0.00 0.00 0.00 0.00 0.00 0.00 0.00 0.00 0.00 0.00 0.00 0.00 0.00 0.00 0.00 0.00 0.00 0.00 0.00 0.00 0.00 0.00 0.00 0.00 0.01 0.01 0.02 0.03 0.03 0.04 0.04 0.05 0.05 0.06 0.05 0.05 0.05 0.04 0.03 0.02 0.01 0.01 0.02 0.01 0.01 0.01 0.01 0.01 0.00 0.01 0.00 0.01 0.02 0.02 0.01 0.01 0.01 0.02 0.02 0.03 0.04 0.05 0.05 0.06 0.07 0.08 0.09
0.00 0.00 0.00 0.00 0.00 0.00 0.00 0.00 0.00 0.00 0.00 0.00 0.00 0.00 0.00 0.00 0.00 0.00 0.00 0.00 0.00 0.00 0.00 0.00 0.00 0.00 0.00 0.00 0.00 0.00 0.00 0.00 0.00 0.00 0.00 0.00 0.00 0.00 0.00 0.00 0.00 0.00 0.01 0.02 0.02 0.03 0.06 0.05 0.06 0.07 0.07 0.07 0.07 0.06 0.05 0.04 0.03 0.03 0.02 0.01 0.02 0.03 0.01 0.01 0.00 0.02 0.01 0.01 0.03 0.01 0.02 0.02 0.02 0.02 0.02 0.03 0.05 0.04 0.04 0.04 0.04 0.07 0.05 0.06 0.07 0.08
0.00 0.00 0.00 0.00 0.00 0.00 0.00 0.00 0.00 0.00 0.00 0.00 0.00 0.00 0.00 0.00 0.00 0.00 0.00 0.00 0.00 0.00 0.00 0.00 0.00 0.00 0.00 0.00 0.00 0.00 0.00 0.00 0.00 0.00 0.00 0.00 0.00 0.00 0.00 0.00 0.01 0.01 0.02 0.02 0.03 0.06 0.06 0.08 0.09 0.09 0.07 0.06 0.05 0.04 0.02 0.02 0.03 0.02 0.02 0.02 0.01 0.02 0.01 0.01 0.00 0.01 0.02 0.04 0.03 0.01 0.02 0.05 0.06 0.07 0.03 0.02 0.02 0.03 0.03 0.03 0.03 0.03 0.04 0.05 0.07 0.07
0.00 0.00 0.00 0.00 0.00 0.00 0.00 0.00 0.00 0.00 0.00 0.00 0.00 0.00 0.00 0.00 0.00 0.00 0.00 0.00 0.00 0.00 0.00 0.00 0.00 0.00 0.00 0.00 0.00 0.00 0.00 0.00 0.00 0.00 0.00 0.00 0.00 0.00 0.00 0.01 0.01 0.02 0.03 0.03 0.05 0.07 0.07 0.08 0.08 0.06 0.04 0.03 0.04 0.03 0.03 0.03 0.02 0.02 0.01 0.00 0.01 0.01 0.01 0.01 0.02 0.04 0.02 0.01 0.01 0.02 0.02 0.02 0.03 0.04 0.04 0.02 0.02 0.02 0.02 0.04 0.04 0.03 0.03 0.04 0.05 0.07
0.00 0.00 0.00 0.00 0.00 0.00 0.00 0.00 0.00 0.00 0.00 0.00 0.00 0.00 0.00 0.00 0.00 0.00 0.00 0.00 0.00 0.00 0.00 0.00 0.00 0.00 0.00 0.00 0.00 0.00 0.00 0.00 0.00 0.00 0.00 0.00 0.00 0.00 0.01 0.02 0.02 0.02 0.02 0.03 0.06 0.08 0.06 0.05 0.05 0.05 0.05 0.04 0.04 0.03 0.02 0.03 0.01 0.02 0.00 0.00 0.01 0.05 0.03 0.01 0.00 0.03 0.00 0.01 0.01 0.01 0.01 0.02 0.03 0.04 0.04 0.03 0.03 0.03 0.03 0.03 0.03 0.02 0.03 0.03 0.05 0.07
0.00 0.00 0.00 0.00 0.00 0.00 0.00 0.00 0.00 0.00 0.00 0.00 0.00 0.00 0.00 0.00 0.00 0.00 0.00 0.00 0.00 0.00 0.00 0.00 0.00 0.00 0.00 0.00 0.00 0.00 0.00 0.00 0.00 0.00 0.00 0.00 0.00 0.01 0.02 0.02 0.02 0.03 0.06 0.06 0.06 0.07 0.09 0.04 0.05 0.03 0.02 0.02 0.03 0.01 0.02 0.02 0.01 0.01 0.00 0.00 0.01 0.04 0.01 0.01 0.00 0.00 0.01 0.01 0.02 0.03 0.03 0.04 0.03 0.03 0.02 0.02 0.02 0.02 0.02 0.02 0.01 0.02 0.02 0.03 0.04 0.05
0.00 0.00 0.00 0.00 0.00 0.00 0.00 0.00 0.00 0.00 0.00 0.00 0.00 0.00 0.00 0.00 0.00 0.00 0.00 0.00 0.00 0.00 0.00 0.00 0.00 0.00 0.00 0.00 0.00 0.00 0.00 0.00 0.00 0.00 0.00 0.01 0.02 0.02 0.02 0.04 0.04 0.03 0.07 0.07 0.05 0.06 0.05 0.03 0.03 0.03 0.02 0.01 0.01 0.00 0.00 0.01 0.01 0.04 0.00 0.01 0.00 0.00 0.01 0.01 0.01 0.01 0.01 0.02 0.02 0.02 0.02 0.02 0.03 0.03 0.03 0.03 0.02 0.02 0.02 0.02 0.02 0.02 0.02 0.03 0.04 0.05
0.00 0.00 0.00 0.00 0.00 0.00 0.00 0.00 0.00 0.00 0.00 0.00 0.00 0.00 0.00 0.00 0.00 0.00 0.00 0.00 0.00 0.00 0.00 0.00 0.00 0.00 0.00 0.00 0.00 0.00 0.00 0.00 0.00 0.00 0.01 0.04 0.04 0.04 0.06 0.05 0.04 0.06 0.05 0.07 0.05 0.05 0.04 0.02 0.03 0.03 0.02 0.02 0.01 0.00 0.00 0.00 0.02 0.02 0.01 0.00 0.01 0.02 0.01 0.01 0.01 0.02 0.02 0.02 0.02 0.02 0.03 0.03 0.05 0.04 0.04 0.05 0.04 0.03 0.03 0.03 0.03 0.03 0.03 0.03 0.03 0.04
0.00 0.00 0.00 0.00 0.00 0.00 0.00 0.00 0.00 0.00 0.00 0.00 0.00 0.00 0.00 0.00 0.00 0.00 0.00 0.00 0.00 0.00 0.00 0.00 0.00 0.00 0.00 0.00 0.00 0.00 0.00 0.00 0.00 0.01 0.03 0.05 0.05 0.06 0.05 0.06 0.05 0.08 0.05 0.04 0.04 0.04 0.04 0.02 0.02 0.02 0.00 0.01 0.01 0.00 0.00 0.00 0.02 0.01 0.01 0.03 0.01 0.01 0.01 0.04 0.03 0.02 0.02 0.01 0.02 0.03 0.02 0.02 0.02 0.02 0.04 0.06 0.04 0.04 0.05 0.04 0.04 0.04 0.05 0.05 0.06 0.06
0.00 0.00 0.00 0.00 0.00 0.00 0.00 0.00 0.00 0.00 0.00 0.00 0.00 0.00 0.00 0.00 0.00 0.00 0.00 0.00 0.00 0.00 0.00 0.00 0.00 0.00 0.00 0.00 0.00 0.00 0.00 0.00 0.00 0.01 0.04 0.04 0.06 0.09 0.06 0.06 0.07 0.05 0.02 0.03 0.03 0.03 0.01 0.01 0.01 0.01 0.01 0.00 0.01 0.00 0.00 0.01 0.02 0.02 0.02 0.02 0.03 0.03 0.02 0.03 0.01 0.01 0.01 0.01 0.02 0.01 0.01 0.01 0.02 0.02 0.02 0.04 0.05 0.05 0.05 0.05 0.06 0.07 0.10 0.10 0.09 0.07
0.00 0.00 0.00 0.00 0.00 0.00 0.00 0.00 0.00 0.00 0.00 0.00 0.00 0.00 0.00 0.00 0.00 0.00 0.00 0.00 0.00 0.00 0.00 0.00 0.00 0.00 0.00 0.00 0.00 0.00 0.00 0.00 0.00 0.03 0.05 0.07 0.05 0.02 0.04 0.05 0.03 0.02 0.02 0.02 0.02 0.02 0.03 0.01 0.01 0.01 0.00 0.01 0.01 0.01 0.01 0.01 0.03 0.02 0.03 0.04 0.03 0.02 0.01 0.02 0.01 0.01 0.01 0.01 0.01 0.00 0.01 0.02 0.03 0.01 0.01 0.01 0.02 0.03 0.04 0.06 0.10 0.09 0.08 0.09 0.06 0.06
0.00 0.00 0.00 0.00 0.00 0.00 0.00 0.00 0.00 0.00 0.00 0.00 0.00 0.00 0.00 0.00 0.00 0.00 0.00 0.00 0.00 0.00 0.00 0.00 0.00 0.00 0.00 0.00 0.00 0.00 0.00 0.00 0.01 0.04 0.05 0.20 0.14 0.05 0.05 0.04 0.03 0.03 0.03 0.02 0.02 0.01 0.01 0.00 0.01 0.02 0.01 0.01 0.02 0.02 0.02 0.02 0.03 0.03 0.04 0.02 0.01 0.01 0.01 0.01 0.01 0.01 0.01 0.01 0.00 0.00 0.00 0.01 0.01 0.02 0.02 0.02 0.02 0.02 0.04 0.06 0.08 0.07 0.07 0.07 0.07 0.07
0.00 0.00 0.00 0.00 0.00 0.00 0.00 0.00 0.00 0.00 0.00 0.00 0.00 0.00 0.00 0.00 0.00 0.00 0.00 0.00 0.00 0.00 0.00 0.00 0.00 0.00 0.00 0.00 0.00 0.00 0.00 0.01 0.03 0.05 0.17 0.19 0.14 0.08 0.08 0.08 0.04 0.03 0.02 0.01 0.02 0.02 0.02 0.01 0.01 0.02 0.00 0.02 0.02 0.03 0.03 0.03 0.05 0.05 0.03 0.01 0.01 0.01 0.01 0.01 0.01 0.01 0.01 0.00 0.00 0.00 0.01 0.01 0.01 0.01 0.02 0.02 0.02 0.04 0.04 0.04 0.05 0.07 0.06 0.06 0.05 0.06
0.00 0.00 0.00 0.00 0.00 0.00 0.00 0.00 0.00 0.00 0.00 0.00 0.00 0.00 0.00 0.00 0.00 0.00 0.00 0.00 0.00 0.00 0.00 0.00 0.00 0.00 0.00 0.00 0.01 0.00 0.02 0.04 0.06 0.17 0.32 0.09 0.14 0.12 0.09 0.06 0.04 0.02 0.02 0.01 0.02 0.01 0.02 0.01 0.01 0.02 0.01 0.03 0.03 0.04 0.03 0.02 0.06 0.03 0.02 0.01 0.01 0.01 0.01 0.02 0.01 0.01 0.01 0.01 0.01 0.01 0.01 0.01 0.01 0.01 0.02 0.03 0.05 0.05 0.05 0.04 0.04 0.05 0.04 0.04 0.05 0.10
0.00 0.00 0.00 0.00 0.00 0.00 0.00 0.00 0.00 0.00 0.00 0.00 0.00 0.00 0.00 0.00 0.00 0.00 0.00 0.00 0.00 0.00 0.00 0.00 0.00 0.00 0.00 0.00 0.00 0.02 0.06 0.08 0.12 0.26 0.23 0.15 0.13 0.15 0.11 0.06 0.03 0.03 0.02 0.02 0.02 0.02 0.03 0.01 0.01 0.02 0.01 0.03 0.03 0.06 0.05 0.04 0.07 0.02 0.02 0.02 0.01 0.01 0.02 0.01 0.01 0.01 0.01 0.01 0.01 0.01 0.01 0.00 0.01 0.01 0.03 0.05 0.05 0.04 0.03 0.03 0.02 0.02 0.03 0.08 0.05 0.07
0.00 0.00 0.00 0.00 0.00 0.00 0.00 0.00 0.00 0.00 0.00 0.00 0.00 0.00 0.00 0.00 0.00 0.00 0.00 0.00 0.00 0.00 0.02 0.02 0.01 0.01 0.00 0.00 0.01 0.05 0.08 0.10 0.19 0.29 0.14 0.12 0.14 0.08 0.06 0.03 0.03 0.03 0.02 0.01 0.02 0.04 0.05 0.01 0.01 0.03 0.03 0.05 0.05 0.04 0.02 0.04 0.04 0.03 0.02 0.01 0.01 0.01 0.02 0.01 0.01 0.01 0.01 0.01 0.01 0.00 0.00 0.01 0.01 0.03 0.04 0.03 0.02 0.02 0.02 0.01 0.01 0.03 0.11 0.11 0.08 0.07
0.00 0.00 0.00 0.00 0.00 0.00 0.00 0.00 0.00 0.00 0.00 0.00 0.00 0.00 0.00 0.00 0.00 0.00 0.00 0.00 0.00 0.01 0.02 0.03 0.05 0.01 0.00 0.01 0.03 0.06 0.07 0.24 0.27 0.21 0.11 0.11 0.08 0.05 0.03 0.02 0.02 0.02 0.02 0.02 0.02 0.04 0.04 0.01 0.03 0.03 0.03 0.06 0.05 0.04 0.03 0.04 0.04 0.03 0.02 0.02 0.01 0.01 0.02 0.01 0.01 0.01 0.01 0.01 0.00 0.01 0.01 0.01 0.03 0.03 0.02 0.01 0.01 0.01 0.02 0.02 0.04 0.06 0.07 0.09 0.10 0.12
0.00 0.00 0.00 0.00 0.00 0.00 0.00 0.00 0.00 0.00 0.00 0.00 0.00 0.00 0.00 0.00 0.00 0.00 0.00 0.00 0.00 0.01 0.02 0.05 0.06 0.02 0.00 0.01 0.03 0.05 0.08 0.16 0.14 0.11 0.07 0.04 0.03 0.02 0.02 0.02 0.01 0.01 0.01 0.02 0.04 0.06 0.02 0.01 0.02 0.03 0.02 0.04 0.03 0.04 0.02 0.03 0.05 0.04 0.03 0.01 0.01 0.01 0.03 0.01 0.01 0.01 0.01 0.01 0.01 0.01 0.01 0.03 0.02 0.01 0.01 0.01 0.01 0.05 0.03 0.05 0.05 0.05 0.06 0.09 0.11 0.11
0.00 0.00 0.00 0.00 0.00 0.00 0.00 0.00 0.00 0.00 0.00 0.00 0.00 0.00 0.00 0.00 0.00 0.00 0.01 0.00 0.00 0.00 0.00 0.01 0.09 0.06 0.00 0.01 0.02 0.03 0.11 0.09 0.09 0.06 0.02 0.03 0.03 0.03 0.02 0.02 0.01 0.01 0.01 0.02 0.01 0.04 0.02 0.03 0.03 0.03 0.04 0.08 0.07 0.05 0.04 0.05 0.05 0.03 0.02 0.01 0.02 0.01 0.02 0.01 0.01 0.01 0.01 0.01 0.01 0.02 0.02 0.02 0.01 0.02 0.02 0.01 0.04 0.05 0.04 0.04 0.04 0.04 0.09 0.09 0.09 0.10
0.00 0.00 0.00 0.00 0.00 0.00 0.00 0.00 0.00 0.00 0.00 0.00 0.00 0.00 0.00 0.00 0.00 0.00 0.00 0.00 0.01 0.01 0.03 0.06 0.14 0.03 0.01 0.02 0.01 0.04 0.10 0.09 0.11 0.09 0.10 0.12 0.07 0.04 0.03 0.04 0.01 0.01 0.02 0.01 0.03 0.05 0.02 0.03 0.03 0.03 0.02 0.05 0.04 0.03 0.03 0.07 0.05 0.03 0.02 0.01 0.02 0.02 0.02 0.01 0.01 0.01 0.01 0.01 0.02 0.02 0.01 0.01 0.04 0.01 0.02 0.04 0.09 0.03 0.03 0.06 0.08 0.06 0.06 0.06 0.07 0.09
0.00 0.00 0.00 0.00 0.00 0.00 0.00 0.00 0.00 0.00 0.00 0.00 0.00 0.00 0.00 0.00 0.00 0.00 0.00 0.00 0.01 0.02 0.02 0.08 0.19 0.03 0.01 0.00 0.00 0.07 0.03 0.09 0.05 0.05 0.04 0.05 0.03 0.03 0.02 0.02 0.02 0.03 0.03 0.04 0.04 0.06 0.03 0.03 0.03 0.02 0.04 0.06 0.06 0.05 0.05 0.07 0.04 0.03 0.02 0.01 0.02 0.03 0.02 0.01 0.01 0.01 0.02 0.02 0.02 0.02 0.01 0.02 0.02 0.02 0.03 0.06 0.03 0.05 0.04 0.04 0.05 0.05 0.08 0.11 0.12 0.14
0.00 0.00 0.00 0.00 0.00 0.00 0.00 0.00 0.00 0.00 0.00 0.00 0.00 0.00 0.00 0.00 0.00 0.00 0.00 0.01 0.03 0.02 0.04 0.07 0.07 0.03 0.01 0.02 0.06 0.06 0.05 0.08 0.06 0.04 0.03 0.03 0.04 0.03 0.03 0.02 0.03 0.04 0.04 0.03 0.06 0.04 0.05 0.06 0.05 0.03 0.05 0.06 0.05 0.07 0.05 0.07 0.04 0.03 0.02 0.02 0.02 0.03 0.01 0.01 0.01 0.02 0.02 0.02 0.02 0.02 0.01 0.02 0.02 0.03 0.05 0.04 0.03 0.05 0.05 0.06 0.08 0.08 0.07 0.10 0.09 0.11
0.00 0.00 0.00 0.00 0.00 0.00 0.00 0.00 0.00 0.00 0.00 0.00 0.00 0.00 0.00 0.00 0.00 0.00 0.00 0.01 0.05 0.04 0.08 0.06 0.16 0.04 0.04 0.10 0.12 0.08 0.11 0.11 0.08 0.05 0.04 0.03 0.03 0.03 0.03 0.03 0.04 0.04 0.04 0.04 0.08 0.06 0.05 0.03 0.03 0.05 0.07 0.08 0.06 0.07 0.05 0.06 0.03 0.03 0.02 0.02 0.01 0.02 0.00 0.01 0.02 0.02 0.02 0.02 0.02 0.02 0.02 0.02 0.03 0.04 0.05 0.05 0.03 0.04 0.07 0.08 0.06 0.05 0.07 0.06 0.09 0.09
0.00 0.00 0.00 0.00 0.00 0.00 0.00 0.00 0.00 0.00 0.00 0.00 0.00 0.00 0.00 0.00 0.00 0.00 0.00 0.02 0.02 0.07 0.12 0.04 0.03 0.11 0.10 0.15 0.13 0.11 0.12 0.11 0.07 0.05 0.04 0.03 0.03 0.03 0.03 0.05 0.11 0.04 0.06 0.06 0.06 0.05 0.04 0.03 0.03 0.04 0.05 0.08 0.05 0.05 0.05 0.05 0.03 0.03 0.02 0.02 0.01 0.01 0.01 0.02 0.02 0.02 0.02 0.02 0.02 0.02 0.03 0.03 0.03 0.04 0.03 0.04 0.07 0.05 0.06 0.06 0.06 0.08 0.06 0.10 0.10 0.14
0.00 0.00 0.00 0.00 0.00 0.00 0.00 0.00 0.00 0.00 0.00 0.00 0.00 0.00 0.00 0.00 0.00 0.00 0.01 0.01 0.03 0.11 0.10 0.04 0.05 0.08 0.10 0.14 0.13 0.11 0.11 0.11 0.06 0.03 0.02 0.02 0.04 0.05 0.06 0.07 0.08 0.05 0.05 0.04 0.08 0.05 0.03 0.03 0.04 0.05 0.05 0.05 0.04 0.05 0.05 0.04 0.03 0.02 0.02 0.01 0.01 0.01 0.02 0.02 0.02 0.02 0.02 0.02 0.02 0.03 0.03 0.03 0.03 0.10 0.04 0.11 0.07 0.06 0.05 0.05 0.05 0.06 0.07 0.08 0.08 0.11
0.00 0.00 0.00 0.00 0.00 0.00 0.00 0.00 0.00 0.00 0.00 0.00 0.00 0.00 0.00 0.00 0.00 0.00 0.01 0.01 0.02 0.02 0.02 0.04 0.06 0.08 0.09 0.12 0.10 0.09 0.08 0.06 0.03 0.02 0.03 0.03 0.06 0.09 0.08 0.09 0.05 0.06 0.05 0.07 0.08 0.05 0.03 0.05 0.06 0.08 0.07 0.05 0.05 0.05 0.06 0.05 0.03 0.02 0.01 0.01 0.01 0.02 0.02 0.02 0.02 0.02 0.02 0.03 0.03 0.03 0.07 0.03 0.04 0.09 0.05 0.05 0.04 0.07 0.05 0.03 0.05 0.07 0.09 0.07 0.06 0.05
0.00 0.00 0.00 0.00 0.00 0.00 0.00 0.00 0.00 0.00 0.00 0.00 0.00 0.00 0.00 0.00 0.00 0.00 0.01 0.01 0.01 0.02 0.05 0.06 0.10 0.11 0.08 0.09 0.10 0.07 0.05 0.04 0.04 0.05 0.06 0.03 0.03 0.07 0.07 0.08 0.06 0.06 0.06 0.08 0.08 0.05 0.04 0.07 0.06 0.08 0.07 0.06 0.06 0.05 0.07 0.05 0.04 0.02 0.01 0.01 0.03 0.03 0.02 0.02 0.02 0.02 0.02 0.03 0.03 0.03 0.03 0.07 0.06 0.05 0.04 0.03 0.02 0.03 0.04 0.04 0.04 0.06 0.08 0.10 0.09 0.09
0.00 0.00 0.00 0.00 0.00 0.00 0.00 0.00 0.00 0.00 0.00 0.00 0.00 0.00 0.00 0.00 0.00 0.01 0.01 0.01 0.01 0.04 0.07 0.12 0.14 0.14 0.11 0.07 0.09 0.06 0.05 0.04 0.05 0.02 0.07 0.06 0.08 0.09 0.09 0.09 0.07 0.06 0.06 0.12 0.11 0.06 0.08 0.09 0.10 0.08 0.09 0.06 0.06 0.06 0.07 0.04 0.03 0.02 0.02 0.03 0.04 0.03 0.03 0.02 0.02 0.02 0.05 0.03 0.03 0.06 0.06 0.08 0.04 0.03 0.03 0.02 0.02 0.03 0.04 0.05 0.05 0.05 0.06 0.06 0.11 0.10
0.00 0.00 0.00 0.00 0.00 0.00 0.00 0.00 0.00 0.00 0.00 0.00 0.00 0.00 0.00 0.00 0.01 0.00 0.00 0.00 0.01 0.02 0.09 0.15 0.14 0.08 0.07 0.07 0.06 0.07 0.06 0.04 0.05 0.03 0.05 0.06 0.08 0.14 0.13 0.12 0.08 0.05 0.08 0.13 0.09 0.08 0.10 0.12 0.12 0.09 0.08 0.06 0.06 0.06 0.05 0.03 0.02 0.02 0.03 0.04 0.04 0.03 0.03 0.03 0.03 0.03 0.03 0.03 0.04 0.04 0.10 0.04 0.03 0.03 0.02 0.02 0.03 0.04 0.07 0.07 0.07 0.06 0.07 0.09 0.11 0.11
0.00 0.00 0.00 0.00 0.00 0.00 0.00 0.00 0.00 0.00 0.00 0.00 0.00 0.00 0.00 0.01 0.01 0.01 0.01 0.01 0.01 0.02 0.03 0.03 0.05 0.07 0.08 0.09 0.09 0.07 0.05 0.04 0.02 0.01 0.04 0.05 0.07 0.10 0.08 0.06 0.08 0.08 0.09 0.10 0.10 0.12 0.12 0.11 0.10 0.09 0.10 0.08 0.06 0.06 0.04 0.02 0.03 0.03 0.03 0.04 0.03 0.04 0.04 0.03 0.03 0.03 0.04 0.05 0.04 0.05 0.06 0.04 0.03 0.03 0.03 0.03 0.05 0.06 0.08 0.11 0.09 0.08 0.13 0.12 0.12 0.15
0.00 0.00 0.00 0.00 0.00 0.00 0.00 0.00 0.00 0.00 0.00 0.00 0.00 0.00 0.00 0.00 0.00 0.01 0.02 0.03 0.02 0.03 0.04 0.09 0.11 0.10 0.08 0.08 0.07 0.05 0.03 0.03 0.02 0.03 0.03 0.03 0.04 0.05 0.09 0.05 0.11 0.07 0.11 0.10 0.10 0.12 0.14 0.12 0.11 0.10 0.11 0.08 0.07 0.05 0.03 0.03 0.04 0.05 0.04 0.04 0.04 0.04 0.03 0.03 0.04 0.05 0.05 0.05 0.05 0.07 0.04 0.05 0.04 0.04 0.04 0.07 0.06 0.07 0.08 0.09 0.09 0.09 0.12 0.15 0.15 0.16
0.00 0.00 0.00 0.00 0.00 0.00 0.00 0.00 0.00 0.00 0.00 0.00 0.00 0.00 0.00 0.01 0.02 0.03 0.08 0.05 0.02 0.02 0.05 0.07 0.09 0.08 0.05 0.05 0.06 0.05 0.05 0.03 0.03 0.02 0.03 0.02 0.03 0.06 0.04 0.04 0.03 0.05 0.07 0.10 0.17 0.15 0.14 0.13 0.14 0.15 0.12 0.08 0.05 0.05 0.04 0.06 0.06 0.06 0.05 0.08 0.06 0.03 0.03 0.04 0.06 0.06 0.06 0.07 0.08 0.05 0.06 0.06 0.05 0.05 0.06 0.07 0.10 0.08 0.11 0.09 0.09 0.12 0.14 0.17 0.18 0.20
0.00 0.00 0.00 0.00 0.00 0.00 0.00 0.00 0.00 0.00 0.00 0.00 0.00 0.01 0.01 0.02 0.03 0.05 0.06 0.05 0.02 0.07 0.06 0.07 0.07 0.06 0.05 0.05 0.05 0.05 0.05 0.05 0.05 0.05 0.02 0.03 0.04 0.03 0.06 0.02 0.03 0.05 0.08 0.11 0.13 0.13 0.13 0.14 0.12 0.10 0.08 0.05 0.05 0.05 0.06 0.07 0.09 0.08 0.08 0.08 0.04 0.04 0.05 0.07 0.07 0.09 0.09 0.10 0.10 0.09 0.05 0.05 0.07 0.07 0.08 0.11 0.12 0.13 0.11 0.17 0.15 0.15 0.23 0.23 0.23 0.25
0.00 0.00 0.00 0.00 0.00 0.00 0.00 0.00 0.00 0.00 0.01 0.01 0.01 0.01 0.01 0.01 0.02 0.03 0.04 0.05 0.01 0.07 0.04 0.05 0.07 0.10 0.06 0.06 0.06 0.06 0.07 0.12 0.15 0.10 0.07 0.04 0.04 0.06 0.03 0.02 0.03 0.05 0.08 0.11 0.07 0.10 0.14 0.14 0.11 0.08 0.05 0.04 0.05 0.07 0.07 0.07 0.11 0.12 0.08 0.07 0.05 0.06 0.07 0.08 0.09 0.09 0.10 0.14 0.06 0.05 0.05 0.07 0.09 0.10 0.10 0.13 0.14 0.15 0.12 0.13 0.23 0.20 0.21 0.30 0.27 0.26
0.00 0.00 0.00 0.00 0.00 0.00 0.00 0.00 0.00 0.01 0.01 0.01 0.01 0.01 0.01 0.01 0.02 0.02 0.03 0.04 0.03 0.05 0.05 0.05 0.07 0.06 0.06 0.08 0.08 0.08 0.15 0.24 0.21 0.16 0.08 0.05 0.06 0.02 0.02 0.02 0.03 0.06 0.07 0.05 0.09 0.13 0.09 0.08 0.08 0.06 0.04 0.05 0.08 0.09 0.09 0.10 0.10 0.09 0.08 0.07 0.07 0.07 0.10 0.10 0.09 0.10 0.11 0.09 0.06 0.06 0.07 0.08 0.09 0.10 0.13 0.13 0.17 0.16 0.18 0.18 0.22 0.21 0.25 0.28 0.27 0.24
0.00 0.00 0.00 0.00 0.00 0.00 0.00 0.01 0.01 0.00 0.01 0.01 0.01 0.01 0.01 0.01 0.01 0.02 0.08 0.12 0.11 0.06 0.05 0.05 0.06 0.06 0.07 0.07 0.07 0.11 0.20 0.23 0.18 0.15 0.06 0.04 0.03 0.02 0.02 0.02 0.05 0.06 0.04 0.05 0.12 0.11 0.09 0.07 0.05 0.04 0.05 0.09 0.08 0.11 0.11 0.10 0.09 0.10 0.09 0.08 0.12 0.12 0.10 0.10 0.10 0.11 0.10 0.09 0.15 0.09 0.08 0.07 0.11 0.12 0.12 0.20 0.12 0.14 0.20 0.21 0.25 0.27 0.29 0.25 0.23 0.27
0.00 0.00 0.00 0.00 0.00 0.00 0.00 0.01 0.00 0.01 0.00 0.01 0.01 0.01 0.01 0.01 0.03 0.13 0.26 0.23 0.07 0.04 0.04 0.03 0.05 0.05 0.06 0.07 0.11 0.13 0.12 0.14 0.13 0.07 0.04 0.04 0.03 0.02 0.01 0.04 0.07 0.05 0.06 0.08 0.09 0.06 0.06 0.05 0.07 0.07 0.07 0.11 0.10 0.10 0.10 0.11 0.12 0.13 0.11 0.15 0.12 0.11 0.10 0.09 0.10 0.13 0.15 0.14 0.13 0.08 0.08 0.16 0.16 0.16 0.10 0.12 0.14 0.17 0.22 0.28 0.29 0.22 0.23 0.27 0.36 0.47
0.00 0.00 0.00 0.00 0.00 0.00 0.00 0.01 0.01 0.01 0.01 0.01 0.01 0.01 0.01 0.06 0.22 0.34 0.16 0.03 0.02 0.03 0.02 0.07 0.08 0.05 0.06 0.07 0.07 0.09 0.09 0.05 0.06 0.03 0.04 0.04 0.02 0.02 0.03 0.03 0.02 0.04 0.05 0.08 0.07 0.06 0.05 0.06 0.06 0.05 0.09 0.07 0.10 0.09 0.10 0.13 0.17 0.20 0.14 0.15 0.12 0.10 0.10 0.09 0.13 0.15 0.11 0.07 0.07 0.07 0.07 0.09 0.15 0.10 0.13 0.11 0.18 0.24 0.29 0.21 0.20 0.24 0.31 0.47 0.54 0.53
0.00 0.00 0.00 0.00 0.00 0.00 0.00 0.02 0.04 0.08 0.05 0.00 0.00 0.02 0.01 0.08 0.11 0.03 0.01 0.02 0.02 0.01 0.02 0.04 0.04 0.04 0.04 0.06 0.07 0.09 0.06 0.06 0.05 0.04 0.04 0.03 0.03 0.05 0.04 0.03 0.05 0.08 0.08 0.06 0.06 0.04 0.08 0.06 0.06 0.07 0.08 0.07 0.06 0.08 0.11 0.16 0.18 0.17 0.14 0.14 0.11 0.09 0.10 0.13 0.19 0.17 0.10 0.09 0.08 0.07 0.10 0.10 0.10 0.13 0.19 0.16 0.21 0.28 0.27 0.22 0.22 0.31 0.42 0.47 0.55 0.60
0.00 0.00 0.00 0.00 0.00 0.02 0.02 0.03 0.03 0.01 0.00 0.00 0.00 0.02 0.01 0.02 0.04 0.01 0.01 0.01 0.01 0.01 0.02 0.03 0.04 0.03 0.03 0.04 0.06 0.06 0.07 0.07 0.07 0.06 0.06 0.06 0.07 0.06 0.04 0.05 0.08 0.08 0.07 0.07 0.07 0.06 0.07 0.09 0.08 0.10 0.09 0.05 0.07 0.13 0.10 0.17 0.19 0.19 0.16 0.13 0.09 0.10 0.18 0.16 0.14 0.09 0.10 0.09 0.07 0.06 0.09 0.13 0.09 0.11 0.15 0.19 0.24 0.28 0.31 0.31 0.38 0.42 0.43 0.49 0.64 0.68
0.00 0.00 0.00 0.00 0.00 0.00 0.01 0.00 0.00 0.00 0.00 0.00 0.00 0.00 0.00 0.00 0.00 0.00 0.00 0.00 0.01 0.01 0.01 0.02 0.03 0.03 0.03 0.04 0.04 0.06 0.08 0.09 0.08 0.07 0.07 0.09 0.08 0.06 0.07 0.12 0.11 0.09 0.09 0.09 0.09 0.07 0.08 0.10 0.11 0.10 0.07 0.08 0.10 0.07 0.09 0.14 0.20 0.19 0.17 0.13 0.11 0.19 0.26 0.19 0.12 0.11 0.11 0.09 0.06 0.11 0.07 0.09 0.10 0.12 0.16 0.21 0.31 0.38 0.39 0.45 0.45 0.48 0.45 0.56 0.62 0.59
0.00 0.00 0.00 0.00 0.00 0.00 0.00 0.00 0.00 0.00 0.00 0.00 0.00 0.00 0.00 0.00 0.00 0.00 0.00 0.00 0.00 0.01 0.01 0.01 0.01 0.02 0.02 0.02 0.03 0.06 0.09 0.08 0.08 0.08 0.09 0.08 0.06 0.07 0.10 0.12 0.08 0.09 0.08 0.09 0.08 0.07 0.09 0.11 0.10 0.08 0.11 0.12 0.08 0.09 0.10 0.10 0.11 0.16 0.15 0.15 0.19 0.23 0.27 0.16 0.15 0.13 0.12 0.08 0.07 0.08 0.08 0.09 0.10 0.15 0.22 0.26 0.29 0.37 0.43 0.47 0.49 0.50 0.53 0.55 0.56 0.52
0.00 0.00 0.00 0.00 0.00 0.00 0.00 0.00 0.00 0.00 0.00 0.00 0.00 0.00 0.00 0.00 0.00 0.00 0.00 0.00 0.00 0.01 0.01 0.01 0.01 0.01 0.01 0.01 0.03 0.06 0.08 0.08 0.08 0.09 0.08 0.08 0.11 0.12 0.14 0.12 0.11 0.12 0.11 0.11 0.10 0.12 0.11 0.11 0.10 0.13 0.17 0.17 0.13 0.12 0.10 0.09 0.09 0.11 0.14 0.20 0.21 0.23 0.18 0.16 0.16 0.16 0.12 0.09 0.08 0.08 0.09 0.11 0.20 0.22 0.23 0.25 0.29 0.34 0.38 0.38 0.45 0.51 0.56 0.59 0.61 0.56
0.00 0.00 0.00 0.00 0.01 0.01 0.01 0.00 0.00 0.00 0.00 0.00 0.00 0.00 0.00 0.00 0.00 0.00 0.00 0.00 0.00 0.00 0.01 0.01 0.01 0.01 0.01 0.02 0.04 0.05 0.07 0.07 0.08 0.08 0.08 0.12 0.19 0.15 0.13 0.13 0.13 0.10 0.10 0.09 0.08 0.12 0.11 0.09 0.16 0.22 0.18 0.15 0.17 0.10 0.09 0.09 0.10 0.11 0.12 0.16 0.19 0.16 0.16 0.20 0.19 0.21 0.13 0.11 0.10 0.11 0.12 0.15 0.20 0.26 0.26 0.28 0.30 0.35 0.40 0.45 0.50 0.54 0.59 0.69 0.76 0.78
0.00 0.00 0.01 0.00 0.02 0.01 0.00 0.00 0.01 0.01 0.02 0.01 0.00 0.00 0.00 0.00 0.00 0.00 0.00 0.00 0.00 0.01 0.01 0.01 0.01 0.01 0.01 0.02 0.03 0.05 0.06 0.08 0.09 0.09 0.12 0.19 0.18 0.14 0.13 0.11 0.11 0.11 0.10 0.10 0.11 0.13 0.09 0.13 0.25 0.16 0.15 0.25 0.12 0.17 0.11 0.12 0.10 0.09 0.12 0.16 0.16 0.19 0.22 0.24 0.20 0.17 0.20 0.11 0.12 0.12 0.15 0.22 0.22 0.23 0.28 0.31 0.30 0.36 0.49 0.58 0.68 0.68 0.62 0.57 0.67 0.83
0.03 0.08 0.10 0.08 0.04 0.01 0.02 0.02 0.01 0.02 0.02 0.01 0.00 0.00 0.00 0.00 0.00 0.00 0.00 0.00 0.01 0.02 0.01 0.02 0.02 0.02 0.02 0.02 0.03 0.04 0.05 0.06 0.06 0.08 0.17 0.15 0.13 0.11 0.12 0.09 0.10 0.11 0.10 0.10 0.10 0.08 0.11 0.12 0.13 0.13 0.20 0.12 0.11 0.15 0.14 0.11 0.11 0.10 0.13 0.15 0.15 0.19 0.27 0.31 0.27 0.25 0.16 0.14 0.15 0.15 0.20 0.24 0.23 0.27 0.28 0.35 0.38 0.41 0.43 0.46 0.68 0.82 0.78 0.63 0.50 0.47
0.00 0.00 0.07 0.12 0.01 0.02 0.02 0.01 0.01 0.00 0.00 0.00 0.00 0.00 0.00 0.00 0.00 0.00 0.00 0.01 0.01 0.01 0.01 0.02 0.03 0.03 0.03 0.03 0.02 0.03 0.04 0.05 0.08 0.13 0.15 0.11 0.09 0.08 0.09 0.12 0.14 0.12 0.13 0.13 0.11 0.12 0.15 0.11 0.11 0.17 0.14 0.14 0.16 0.15 0.12 0.13 0.10 0.11 0.12 0.12 0.13 0.18 0.20 0.27 0.35 0.30 0.21 0.19 0.19 0.19 0.24 0.24 0.29 0.30 0.32 0.37 0.39 0.42 0.46 0.47 0.46 0.48 0.49 0.42 0.44 0.42